Time,TemperatureF,DewpointF,PressureIn,WindDirection,WindDirectionDegrees,WindSpeedMPH,WindSpeedGustMPH,Humidity,HourlyPrecipIn,Conditions,Clouds,dailyrainin,SolarRadiationWatts/m^2,SoftwareType,DateUTC
2013-05-19 00:00:00,54.8,47.9,29.95,SW,224,9.0,-999.0,78,0.00,,,0.00,0.43,,2013-05-19 07:00:00,
2013-05-19 00:10:00,54.6,47.7,29.95,SSW,206,9.5,-999.0,77,0.00,,,0.00,0.00,,2013-05-19 07:10:00,
2013-05-19 00:15:00,54.4,48.2,29.96,WSW,243,5.2,-999.0,79,0.00,,,0.00,0.00,,2013-05-19 07:15:00,
2013-05-19 00:20:00,54.8,48.5,29.96,WNW,302,1.8,-999.0,79,0.00,,,0.00,0.00,,2013-05-19 07:20:00,
2013-05-19 00:25:00,54.4,48.2,29.97,South,175,2.2,-999.0,79,0.00,,,0.00,0.73,,2013-05-19 07:25:00,
2013-05-19 00:30:00,54.7,48.4,29.96,SW,234,5.1,-999.0,79,0.00,,,0.00,0.00,,2013-05-19 07:30:00,
2013-05-19 00:35:00,54.8,48.4,29.97,WSW,251,7.3,-999.0,79,0.00,,,0.00,0.00,,2013-05-19 07:35:00,
2013-05-19 00:40:00,54.8,48.2,29.96,SW,221,4.2,-999.0,79,0.00,,,0.00,0.73,,2013-05-19 07:40:00,
2013-05-19 00:45:00,54.7,48.4,29.96,WSW,247,6.9,-999.0,79,0.00,,,0.00,0.73,,2013-05-19 07:45:00,
2013-05-19 00:50:00,54.8,48.3,29.96,WSW,239,6.3,-999.0,79,0.00,,,0.00,0.43,,2013-05-19 07:50:00,
2013-05-19 00:55:00,54.5,48.1,29.97,SSE,168,3.9,-999.0,79,0.00,,,0.00,0.00,,2013-05-19 07:55:00,
2013-05-19 01:00:00,54.1,48.5,29.96,SW,220,5.2,-999.0,81,0.00,,,0.00,0.00,,2013-05-19 08:00:00,
2013-05-19 01:05:00,53.8,48.6,29.96,South,174,2.8,-999.0,83,0.00,,,0.00,0.43,,2013-05-19 08:05:00,
2013-05-19 01:10:00,53.8,49.2,29.97,SW,216,5.9,-999.0,84,0.00,,,0.00,0.24,,2013-05-19 08:10:00,
2013-05-19 01:15:00,53.7,49.6,29.96,SSE,160,5.2,-999.0,86,0.00,,,0.00,0.12,,2013-05-19 08:15:00,
2013-05-19 01:20:00,53.5,49.4,29.96,SSW,195,5.1,-999.0,86,0.00,,,0.00,0.92,,2013-05-19 08:20:00,
2013-05-19 01:25:00,53.6,49.6,29.96,SW,221,0.0,-999.0,86,0.00,,,0.00,0.00,,2013-05-19 08:25:00,
2013-05-19 01:30:00,53.8,50.0,29.97,NW,321,0.0,-999.0,87,0.00,,,0.00,0.00,,2013-05-19 08:30:00,
2013-05-19 01:35:00,53.6,50.0,29.96,SSW,206,3.0,-999.0,87,0.00,,,0.00,0.00,,2013-05-19 08:35:00,
2013-05-19 01:40:00,53.5,49.9,29.96,SW,233,5.1,-999.0,87,0.00,,,0.00,0.43,,2013-05-19 08:40:00,
2013-05-19 01:45:00,53.5,49.9,29.96,SSW,200,0.0,-999.0,88,0.00,,,0.00,0.12,,2013-05-19 08:45:00,
2013-05-19 01:50:00,53.5,50.2,29.96,SSW,205,4.5,-999.0,89,0.00,,,0.00,0.00,,2013-05-19 08:50:00,
2013-05-19 01:55:00,53.7,50.5,29.96,NW,317,0.0,-999.0,89,0.00,,,0.00,0.73,,2013-05-19 08:55:00,
2013-05-19 02:00:00,53.4,50.3,29.95,SW,215,0.0,-999.0,89,0.00,,,0.00,0.49,,2013-05-19 09:00:00,
2013-05-19 02:05:00,53.5,50.5,29.96,South,179,3.7,-999.0,90,0.00,,,0.00,0.67,,2013-05-19 09:05:00,
2013-05-19 02:10:00,53.5,50.5,29.96,South,175,0.0,-999.0,90,0.00,,,0.00,1.34,,2013-05-19 09:10:00,
2013-05-19 02:15:00,53.8,50.9,29.96,South,175,0.0,-999.0,90,0.00,,,0.00,0.00,,2013-05-19 09:15:00,
2013-05-19 02:20:00,53.4,50.6,29.96,SW,221,0.0,-999.0,90,0.00,,,0.00,0.73,,2013-05-19 09:20:00,
2013-05-19 02:25:00,53.3,50.6,29.96,SW,220,0.0,-999.0,91,0.00,,,0.00,0.00,,2013-05-19 09:25:00,
2013-05-19 02:30:00,54.3,51.7,29.97,West,261,0.0,-999.0,91,0.00,,,0.00,0.00,,2013-05-19 09:30:00,
2013-05-19 02:35:00,53.9,50.8,29.96,SW,216,1.3,-999.0,89,0.00,,,0.00,0.98,,2013-05-19 09:35:00,
2013-05-19 02:40:00,53.8,50.6,29.96,SW,236,0.0,-999.0,89,0.00,,,0.00,0.37,,2013-05-19 09:40:00,
2013-05-19 02:45:00,53.8,50.7,29.97,WSW,246,5.1,-999.0,89,0.00,,,0.00,0.24,,2013-05-19 09:45:00,
2013-05-19 02:50:00,53.6,50.7,29.97,SW,236,0.0,-999.0,90,0.00,,,0.00,0.73,,2013-05-19 09:50:00,
2013-05-19 02:55:00,53.8,51.0,29.96,West,273,4.7,-999.0,90,0.00,,,0.00,0.24,,2013-05-19 09:55:00,
2013-05-19 03:00:00,53.5,50.8,29.96,SW,229,1.8,-999.0,90,0.00,,,0.00,0.00,,2013-05-19 10:00:00,
2013-05-19 03:05:00,53.5,51.0,29.96,WSW,238,3.9,-999.0,91,0.00,,,0.00,0.00,,2013-05-19 10:05:00,
2013-05-19 03:10:00,53.3,50.9,29.96,SW,223,6.9,-999.0,92,0.00,,,0.00,0.00,,2013-05-19 10:10:00,
2013-05-19 03:15:00,53.2,51.0,29.96,SW,234,0.0,-999.0,92,0.00,,,0.00,0.00,,2013-05-19 10:15:00,
2013-05-19 03:20:00,53.2,51.1,29.96,WSW,253,2.0,-999.0,93,0.00,,,0.00,0.00,,2013-05-19 10:20:00,
2013-05-19 03:25:00,53.3,51.2,29.97,South,177,7.3,-999.0,93,0.00,,,0.00,0.00,,2013-05-19 10:25:00,
2013-05-19 03:30:00,53.4,51.4,29.96,West,271,2.7,-999.0,93,0.00,,,0.00,0.00,,2013-05-19 10:30:00,
2013-05-19 03:35:00,53.3,51.4,29.96,SW,220,2.2,-999.0,93,0.00,,,0.00,0.00,,2013-05-19 10:35:00,
2013-05-19 03:40:00,53.2,51.3,29.97,WSW,257,2.5,-999.0,93,0.00,,,0.00,0.31,,2013-05-19 10:40:00,
2013-05-19 03:45:00,53.3,51.5,29.96,SSW,194,0.0,-999.0,93,0.00,,,0.00,0.00,,2013-05-19 10:45:00,
2013-05-19 03:50:00,53.2,51.4,29.95,SSW,193,2.2,-999.0,94,0.00,,,0.00,0.49,,2013-05-19 10:50:00,
2013-05-19 03:55:00,53.4,51.6,29.96,SSW,195,3.7,-999.0,94,0.00,,,0.00,0.49,,2013-05-19 10:55:00,
2013-05-19 04:00:00,53.2,51.4,29.96,WSW,246,0.0,-999.0,93,0.00,,,0.00,0.49,,2013-05-19 11:00:00,
2013-05-19 04:05:00,53.2,51.4,29.96,WSW,238,0.0,-999.0,94,0.00,,,0.00,0.00,,2013-05-19 11:05:00,
2013-05-19 04:10:00,53.1,51.4,29.96,SSW,193,0.0,-999.0,94,0.00,,,0.00,0.49,,2013-05-19 11:10:00,
2013-05-19 04:15:00,53.2,51.6,29.98,SSW,193,1.0,-999.0,94,0.00,,,0.00,0.00,,2013-05-19 11:15:00,
2013-05-19 04:20:00,53.8,52.4,29.97,SSW,193,0.0,-999.0,95,0.00,,,0.00,0.43,,2013-05-19 11:20:00,
2013-05-19 04:25:00,53.5,51.8,29.96,SW,231,0.0,-999.0,94,0.00,,,0.00,0.98,,2013-05-19 11:25:00,
2013-05-19 04:30:00,53.2,51.5,29.96,SW,231,0.0,-999.0,94,0.00,,,0.00,0.00,,2013-05-19 11:30:00,
2013-05-19 04:35:00,53.1,51.5,29.97,SW,224,0.0,-999.0,94,0.00,,,0.00,0.24,,2013-05-19 11:35:00,
2013-05-19 04:40:00,53.0,51.3,29.96,SW,224,0.0,-999.0,94,0.00,,,0.00,0.00,,2013-05-19 11:40:00,
2013-05-19 04:45:00,53.4,51.8,29.96,SW,224,0.0,-999.0,94,0.00,,,0.00,0.00,,2013-05-19 11:45:00,
2013-05-19 04:50:00,53.3,51.7,29.96,SW,227,0.0,-999.0,94,0.00,,,0.00,0.98,,2013-05-19 11:50:00,
2013-05-19 04:55:00,53.6,51.8,29.96,SW,224,0.0,-999.0,94,0.00,,,0.00,0.00,,2013-05-19 11:55:00,
2013-05-19 05:00:00,53.6,51.7,29.97,SSW,208,0.0,-999.0,93,0.00,,,0.00,0.85,,2013-05-19 12:00:00,
2013-05-19 05:05:00,53.4,51.2,29.96,SW,232,0.0,-999.0,92,0.00,,,0.00,0.12,,2013-05-19 12:05:00,
2013-05-19 05:10:00,53.6,51.4,29.97,SW,232,0.0,-999.0,92,0.00,,,0.00,0.00,,2013-05-19 12:10:00,
2013-05-19 05:15:00,53.0,50.8,29.96,SW,232,0.0,-999.0,93,0.00,,,0.00,0.43,,2013-05-19 12:15:00,
2013-05-19 05:20:00,53.0,51.2,29.96,SW,232,0.0,-999.0,93,0.00,,,0.00,0.92,,2013-05-19 12:20:00,
2013-05-19 05:25:00,53.3,51.6,29.97,SW,232,0.0,-999.0,94,0.00,,,0.00,0.61,,2013-05-19 12:25:00,
2013-05-19 05:30:00,53.5,51.8,29.97,SW,232,0.0,-999.0,94,0.00,,,0.00,0.43,,2013-05-19 12:30:00,
2013-05-19 05:35:00,53.5,51.8,29.97,SW,232,0.0,-999.0,94,0.00,,,0.00,0.18,,2013-05-19 12:35:00,
2013-05-19 05:40:00,53.1,51.3,29.96,SW,232,0.0,-999.0,94,0.00,,,0.00,0.73,,2013-05-19 12:40:00,
2013-05-19 05:45:00,52.9,51.2,29.98,SW,232,0.0,-999.0,94,0.00,,,0.00,1.95,,2013-05-19 12:45:00,
2013-05-19 05:50:00,53.2,51.6,29.97,SW,232,0.0,-999.0,94,0.00,,,0.00,1.53,,2013-05-19 12:50:00,
2013-05-19 05:55:00,53.2,51.8,29.97,SW,232,0.0,-999.0,95,0.00,,,0.00,3.42,,2013-05-19 12:55:00,
2013-05-19 06:00:00,53.3,51.7,29.96,SW,232,0.0,-999.0,94,0.00,,,0.00,6.41,,2013-05-19 13:00:00,
2013-05-19 06:05:00,53.1,51.4,29.97,SW,232,0.0,-999.0,94,0.00,,,0.00,6.72,,2013-05-19 13:05:00,
2013-05-19 06:10:00,53.1,51.5,29.98,SW,232,0.0,-999.0,94,0.00,,,0.00,11.05,,2013-05-19 13:10:00,
2013-05-19 06:15:00,53.5,52.0,29.98,SW,224,0.0,-999.0,95,0.00,,,0.00,14.22,,2013-05-19 13:15:00,
2013-05-19 06:20:00,53.3,51.8,29.97,SW,224,0.0,-999.0,95,0.00,,,0.00,16.00,,2013-05-19 13:20:00,
2013-05-19 06:25:00,53.7,52.1,29.98,SW,224,0.0,-999.0,94,0.00,,,0.00,19.54,,2013-05-19 13:25:00,
2013-05-19 06:30:00,54.0,52.3,29.97,SW,235,0.0,-999.0,94,0.00,,,0.00,20.57,,2013-05-19 13:30:00,
2013-05-19 06:35:00,54.0,52.2,29.98,SW,226,1.3,-999.0,93,0.00,,,0.00,22.47,,2013-05-19 13:35:00,
2013-05-19 06:40:00,54.3,52.1,29.98,South,180,0.0,-999.0,92,0.00,,,0.00,26.37,,2013-05-19 13:40:00,
2013-05-19 06:45:00,54.2,51.7,29.98,WSW,254,2.5,-999.0,91,0.00,,,0.00,33.09,,2013-05-19 13:45:00,
2013-05-19 06:50:00,55.3,52.6,29.98,SW,232,0.0,-999.0,91,0.00,,,0.00,93.59,,2013-05-19 13:50:00,
2013-05-19 06:55:00,55.5,51.8,29.97,WSW,250,0.0,-999.0,87,0.00,,,0.00,103.72,,2013-05-19 13:55:00,
2013-05-19 07:00:00,56.0,51.5,29.98,WSW,239,0.0,-999.0,85,0.00,,,0.00,115.75,,2013-05-19 14:00:00,
2013-05-19 07:05:00,57.1,51.5,29.98,SW,229,0.0,-999.0,82,0.00,,,0.00,129.91,,2013-05-19 14:05:00,
2013-05-19 07:10:00,58.2,52.1,29.98,South,191,0.0,-999.0,80,0.00,,,0.00,142.86,,2013-05-19 14:10:00,
2013-05-19 07:15:00,59.3,51.8,29.98,SW,214,0.0,-999.0,76,0.00,,,0.00,153.66,,2013-05-19 14:15:00,
2013-05-19 07:20:00,61.7,53.7,29.97,SW,214,0.0,-999.0,75,0.00,,,0.00,169.23,,2013-05-19 14:20:00,
2013-05-19 07:25:00,61.8,51.9,29.98,SW,214,0.0,-999.0,70,0.00,,,0.00,182.36,,2013-05-19 14:25:00,
2013-05-19 07:30:00,60.9,49.5,29.98,SW,214,0.0,-999.0,66,0.00,,,0.00,195.79,,2013-05-19 14:30:00,
2013-05-19 07:35:00,61.9,49.8,29.97,SW,214,0.0,-999.0,65,0.00,,,0.00,210.74,,2013-05-19 14:35:00,
2013-05-19 07:40:00,64.0,51.9,29.98,SW,214,0.0,-999.0,65,0.00,,,0.00,223.02,,2013-05-19 14:40:00,
2013-05-19 07:45:00,63.5,50.8,29.98,SW,214,0.0,-999.0,63,0.00,,,0.00,236.63,,2013-05-19 14:45:00,
2013-05-19 07:50:00,63.8,52.2,29.98,NW,312,0.0,-999.0,66,0.00,,,0.00,254.76,,2013-05-19 14:50:00,
2013-05-19 07:55:00,65.5,51.3,29.97,NW,325,0.0,-999.0,60,0.00,,,0.00,268.13,,2013-05-19 14:55:00,
2013-05-19 08:00:00,61.8,45.4,29.98,WSW,255,0.0,-999.0,55,0.00,,,0.00,281.87,,2013-05-19 15:00:00,
2013-05-19 08:05:00,62.4,47.3,29.98,West,260,0.0,-999.0,58,0.00,,,0.00,299.88,,2013-05-19 15:05:00,
2013-05-19 08:10:00,66.3,50.4,29.98,West,260,0.0,-999.0,56,0.00,,,0.00,312.64,,2013-05-19 15:10:00,
2013-05-19 08:15:00,63.9,46.6,29.98,WSW,246,0.0,-999.0,53,0.00,,,0.00,326.50,,2013-05-19 15:15:00,
2013-05-19 08:20:00,64.4,47.0,29.98,SSW,213,0.0,-999.0,53,0.00,,,0.00,343.41,,2013-05-19 15:20:00,
2013-05-19 08:25:00,63.9,46.3,29.97,South,185,0.0,-999.0,53,0.00,,,0.00,355.56,,2013-05-19 15:25:00,
2013-05-19 08:30:00,63.8,44.0,29.98,ENE,65,1.0,-999.0,48,0.00,,,0.00,375.58,,2013-05-19 15:30:00,
2013-05-19 08:35:00,65.5,45.2,29.98,NW,316,0.0,-999.0,48,0.00,,,0.00,389.07,,2013-05-19 15:35:00,
2013-05-19 08:40:00,63.6,42.0,29.98,NNE,26,0.0,-999.0,45,0.00,,,0.00,404.95,,2013-05-19 15:40:00,
2013-05-19 08:45:00,62.7,41.7,29.98,NNW,333,2.8,-999.0,46,0.00,,,0.00,419.11,,2013-05-19 15:45:00,
2013-05-19 08:50:00,63.6,41.0,29.97,WSW,239,0.0,-999.0,43,0.00,,,0.00,432.66,,2013-05-19 15:50:00,
2013-05-19 08:55:00,64.1,41.2,29.97,West,276,0.0,-999.0,43,0.00,,,0.00,447.13,,2013-05-19 15:55:00,
2013-05-19 09:00:00,68.3,43.6,29.97,West,279,0.0,-999.0,41,0.00,,,0.00,461.11,,2013-05-19 16:00:00,
2013-05-19 09:05:00,65.6,40.0,29.96,NW,322,1.5,-999.0,39,0.00,,,0.00,477.41,,2013-05-19 16:05:00,
2013-05-19 09:10:00,64.5,38.7,29.96,NW,325,3.7,-999.0,38,0.00,,,0.00,491.33,,2013-05-19 16:10:00,
2013-05-19 09:15:00,68.0,42.4,29.97,NW,323,0.0,-999.0,39,0.00,,,0.00,504.09,,2013-05-19 16:15:00,
2013-05-19 09:20:00,67.8,41.0,29.97,East,88,0.0,-999.0,38,0.00,,,0.00,516.79,,2013-05-19 16:20:00,
2013-05-19 09:25:00,64.8,39.2,29.98,NNE,33,1.8,-999.0,39,0.00,,,0.00,528.45,,2013-05-19 16:25:00,
2013-05-19 09:30:00,65.8,40.8,29.97,NW,325,1.5,-999.0,40,0.00,,,0.00,543.28,,2013-05-19 16:30:00,
2013-05-19 09:35:00,69.2,46.2,29.97,SSE,165,2.5,-999.0,44,0.00,,,0.00,556.59,,2013-05-19 16:35:00,
2013-05-19 09:40:00,68.0,45.9,29.96,NNW,344,0.0,-999.0,45,0.00,,,0.00,564.35,,2013-05-19 16:40:00,
2013-05-19 09:45:00,67.7,44.0,29.96,SW,219,2.5,-999.0,42,0.00,,,0.00,578.02,,2013-05-19 16:45:00,
2013-05-19 09:50:00,65.9,43.4,29.96,SW,231,3.2,-999.0,44,0.00,,,0.00,590.90,,2013-05-19 16:50:00,
2013-05-19 09:55:00,66.0,43.1,29.97,NNE,33,0.0,-999.0,43,0.00,,,0.00,602.26,,2013-05-19 16:55:00,
2013-05-19 10:00:00,64.2,41.6,29.97,South,178,4.4,-999.0,44,0.00,,,0.00,613.74,,2013-05-19 17:00:00,
2013-05-19 10:05:00,67.1,44.9,29.96,West,268,0.0,-999.0,45,0.00,,,0.00,629.61,,2013-05-19 17:05:00,
2013-05-19 10:10:00,64.7,42.0,29.97,SSE,165,5.1,-999.0,43,0.00,,,0.00,642.00,,2013-05-19 17:10:00,
2013-05-19 10:15:00,66.5,43.0,29.96,SSE,167,2.2,-999.0,42,0.00,,,0.00,654.64,,2013-05-19 17:15:00,
2013-05-19 10:20:00,66.5,42.8,29.97,SSW,211,4.7,-999.0,42,0.00,,,0.00,658.06,,2013-05-19 17:20:00,
2013-05-19 10:25:00,68.1,42.8,29.97,SW,228,3.0,-999.0,40,0.00,,,0.00,677.60,,2013-05-19 17:25:00,
2013-05-19 10:30:00,67.7,40.6,29.96,SSW,197,3.4,-999.0,37,0.00,,,0.00,689.32,,2013-05-19 17:30:00,
2013-05-19 10:35:00,69.0,39.5,29.96,SW,223,0.0,-999.0,34,0.00,,,0.00,699.08,,2013-05-19 17:35:00,
2013-05-19 10:40:00,69.4,40.0,29.96,SW,218,3.2,-999.0,34,0.00,,,0.00,705.74,,2013-05-19 17:40:00,
2013-05-19 10:45:00,70.4,40.3,29.95,SSW,206,2.2,-999.0,33,0.00,,,0.00,717.28,,2013-05-19 17:45:00,
2013-05-19 10:50:00,69.4,38.8,29.95,WSW,244,2.3,-999.0,33,0.00,,,0.00,725.28,,2013-05-19 17:50:00,
2013-05-19 10:55:00,67.3,36.5,29.95,WSW,247,3.5,-999.0,32,0.00,,,0.00,736.08,,2013-05-19 17:55:00,
2013-05-19 11:00:00,69.6,38.8,29.96,SW,222,3.9,-999.0,32,0.00,,,0.00,744.14,,2013-05-19 18:00:00,
2013-05-19 11:05:00,67.3,37.0,29.96,South,176,5.2,-999.0,33,0.00,,,0.00,751.16,,2013-05-19 18:05:00,
2013-05-19 11:10:00,67.4,36.8,29.95,SSW,199,4.4,-999.0,32,0.00,,,0.00,762.64,,2013-05-19 18:10:00,
2013-05-19 11:15:00,67.2,36.1,29.96,SSW,213,6.4,-999.0,32,0.00,,,0.00,767.83,,2013-05-19 18:15:00,
2013-05-19 11:20:00,68.6,38.5,29.96,SSW,198,5.2,-999.0,33,0.00,,,0.00,774.91,,2013-05-19 18:20:00,
2013-05-19 11:25:00,69.9,41.0,29.95,SE,143,1.6,-999.0,35,0.00,,,0.00,782.48,,2013-05-19 18:25:00,
2013-05-19 11:30:00,67.0,36.9,29.95,SW,224,6.3,-999.0,33,0.00,,,0.00,788.77,,2013-05-19 18:30:00,
2013-05-19 11:35:00,67.8,38.5,29.95,WSW,256,6.4,-999.0,34,0.00,,,0.00,794.26,,2013-05-19 18:35:00,
2013-05-19 11:40:00,70.6,39.3,29.95,WSW,248,3.0,-999.0,32,0.00,,,0.00,800.55,,2013-05-19 18:40:00,
2013-05-19 11:45:00,71.8,-70.3,0.00,North,0,0.0,-999.0,0,-2.95,,,-2.95,806.84,,2013-05-19 18:45:00,
2013-05-19 11:55:00,68.2,35.6,29.94,WSW,237,4.5,-999.0,30,0.00,,,0.00,818.32,,2013-05-19 18:55:00,
2013-05-19 12:00:00,69.6,36.5,29.94,SSW,192,3.5,-999.0,30,0.00,,,0.00,821.49,,2013-05-19 19:00:00,
2013-05-19 12:05:00,68.2,34.8,29.94,SSW,201,8.8,-999.0,29,0.00,,,0.00,826.68,,2013-05-19 19:05:00,
2013-05-19 12:10:00,69.6,37.0,29.95,SW,230,6.3,-999.0,30,0.00,,,0.00,831.50,,2013-05-19 19:10:00,
2013-05-19 12:15:00,67.8,35.8,29.94,WSW,242,5.4,-999.0,31,0.00,,,0.00,834.25,,2013-05-19 19:15:00,
2013-05-19 12:20:00,69.3,36.9,29.94,SSW,207,6.6,-999.0,30,0.00,,,0.00,837.18,,2013-05-19 19:20:00,
2013-05-19 12:25:00,67.4,36.5,29.94,South,185,5.8,-999.0,32,0.00,,,0.00,840.60,,2013-05-19 19:25:00,
2013-05-19 12:30:00,68.4,38.3,29.94,West,279,5.9,-999.0,33,0.00,,,0.00,842.00,,2013-05-19 19:30:00,
2013-05-19 12:35:00,71.1,41.3,29.93,NW,307,3.5,-999.0,34,0.00,,,0.00,842.98,,2013-05-19 19:35:00,
2013-05-19 12:40:00,67.6,39.1,29.93,SW,234,8.8,-999.0,35,0.00,,,0.00,845.42,,2013-05-19 19:40:00,
2013-05-19 12:45:00,65.6,37.3,29.93,SW,224,6.4,-999.0,35,2.95,,,0.00,843.47,,2013-05-19 19:45:00,
2013-05-19 12:50:00,64.8,37.9,29.93,South,172,6.6,-999.0,37,0.00,,,0.00,844.20,,2013-05-19 19:50:00,
2013-05-19 12:55:00,64.9,37.5,29.93,SSW,198,11.9,-999.0,36,0.00,,,0.00,848.05,,2013-05-19 19:55:00,
2013-05-19 13:00:00,65.9,39.8,29.93,SSW,213,10.5,-999.0,38,0.00,,,0.00,846.46,,2013-05-19 20:00:00,
2013-05-19 13:05:00,64.4,37.9,29.93,West,266,8.8,-999.0,37,0.00,,,0.00,849.33,,2013-05-19 20:05:00,
2013-05-19 13:10:00,67.0,41.2,29.92,South,170,9.5,-999.0,39,0.00,,,0.00,845.67,,2013-05-19 20:10:00,
2013-05-19 13:15:00,67.1,41.3,29.93,SW,233,6.3,-999.0,39,0.00,,,0.00,844.02,,2013-05-19 20:15:00,
2013-05-19 13:20:00,65.7,40.8,29.92,SSW,200,6.4,-999.0,40,0.00,,,0.00,843.04,,2013-05-19 20:20:00,
2013-05-19 13:25:00,66.8,42.7,29.92,West,263,5.2,-999.0,42,0.00,,,0.00,839.13,,2013-05-19 20:25:00,
2013-05-19 13:30:00,64.8,41.0,29.92,SW,228,9.2,-999.0,42,0.00,,,0.00,837.67,,2013-05-19 20:30:00,
2013-05-19 13:35:00,63.2,39.7,29.92,SW,218,17.2,-999.0,42,0.00,,,0.00,834.01,,2013-05-19 20:35:00,
2013-05-19 13:40:00,64.7,41.0,29.91,SW,218,12.1,-999.0,42,0.00,,,0.00,831.81,,2013-05-19 20:40:00,
2013-05-19 13:45:00,64.1,40.4,29.92,SSW,205,11.1,-999.0,42,0.00,,,0.00,827.66,,2013-05-19 20:45:00,
2013-05-19 13:50:00,66.5,43.4,29.92,South,179,4.4,-999.0,43,0.00,,,0.00,825.21,,2013-05-19 20:50:00,
2013-05-19 13:55:00,65.8,42.5,29.92,SSW,210,11.1,-999.0,43,0.00,,,0.00,822.53,,2013-05-19 20:55:00,
2013-05-19 14:00:00,64.1,41.9,29.91,SW,228,12.1,-999.0,44,0.00,,,0.00,817.52,,2013-05-19 21:00:00,
2013-05-19 14:05:00,64.8,41.5,29.91,WSW,249,10.5,-999.0,43,0.00,,,0.00,811.54,,2013-05-19 21:05:00,
2013-05-19 14:10:00,65.7,42.8,29.91,NNW,328,14.6,-999.0,43,0.00,,,0.00,811.97,,2013-05-19 21:10:00,
2013-05-19 14:15:00,65.9,44.3,29.91,WSW,242,5.4,-999.0,46,0.00,,,0.00,804.70,,2013-05-19 21:15:00,
2013-05-19 14:20:00,64.2,42.8,29.91,SW,229,13.4,-999.0,46,0.00,,,0.00,793.83,,2013-05-19 21:20:00,
2013-05-19 14:25:00,66.1,42.9,29.91,South,173,7.6,-999.0,43,0.00,,,0.00,787.79,,2013-05-19 21:25:00,
2013-05-19 14:30:00,65.2,42.0,29.91,SW,223,11.9,-999.0,43,0.00,,,0.00,782.54,,2013-05-19 21:30:00,
2013-05-19 14:35:00,64.4,41.0,29.91,SW,227,11.2,-999.0,42,0.00,,,0.00,778.27,,2013-05-19 21:35:00,
2013-05-19 14:40:00,64.7,41.7,29.91,WSW,256,6.1,-999.0,43,0.00,,,0.00,762.88,,2013-05-19 21:40:00,
2013-05-19 14:45:00,63.5,40.8,29.91,SW,226,9.8,-999.0,43,0.00,,,0.00,758.00,,2013-05-19 21:45:00,
2013-05-19 14:50:00,64.8,42.1,29.90,SW,216,13.4,-999.0,44,0.00,,,0.00,753.18,,2013-05-19 21:50:00,
2013-05-19 14:55:00,64.9,42.8,29.91,SW,221,9.2,-999.0,44,0.00,,,0.00,745.54,,2013-05-19 21:55:00,
2013-05-19 15:00:00,63.8,42.4,29.91,SSW,203,7.8,-999.0,46,0.00,,,0.00,736.51,,2013-05-19 22:00:00,
2013-05-19 15:05:00,63.0,41.7,29.90,WSW,254,10.4,-999.0,46,0.00,,,0.00,728.45,,2013-05-19 22:05:00,
2013-05-19 15:10:00,62.8,41.4,29.90,SSW,210,11.9,-999.0,45,0.00,,,0.00,718.25,,2013-05-19 22:10:00,
2013-05-19 15:15:00,62.4,41.2,29.89,SW,230,11.9,-999.0,46,0.00,,,0.00,706.17,,2013-05-19 22:15:00,
2013-05-19 15:20:00,63.8,41.8,29.89,South,177,10.4,-999.0,45,0.00,,,0.00,703.11,,2013-05-19 22:20:00,
2013-05-19 15:25:00,64.4,43.4,29.89,WSW,246,5.8,-999.0,46,0.00,,,0.00,687.42,,2013-05-19 22:25:00,
2013-05-19 15:30:00,63.5,42.8,29.88,SW,233,12.6,-999.0,47,0.00,,,0.00,673.81,,2013-05-19 22:30:00,
2013-05-19 15:35:00,63.1,42.4,29.89,South,176,8.0,-999.0,47,0.00,,,0.00,668.25,,2013-05-19 22:35:00,
2013-05-19 15:40:00,61.9,41.4,29.90,SW,226,10.2,-999.0,47,0.00,,,0.00,657.88,,2013-05-19 22:40:00,
2013-05-19 15:45:00,64.2,43.3,29.89,SW,225,7.1,-999.0,47,0.00,,,0.00,644.93,,2013-05-19 22:45:00,
2013-05-19 15:50:00,63.9,40.4,29.89,SW,228,6.3,-999.0,42,0.00,,,0.00,635.47,,2013-05-19 22:50:00,
2013-05-19 15:55:00,63.8,39.5,29.89,WSW,243,13.6,-999.0,41,0.00,,,0.00,624.48,,2013-05-19 22:55:00,
2013-05-19 16:00:00,64.8,40.4,29.88,West,271,10.4,-999.0,41,0.00,,,0.00,613.00,,2013-05-19 23:00:00,
2013-05-19 16:05:00,63.1,40.5,29.88,SE,138,8.0,-999.0,43,0.00,,,0.00,601.34,,2013-05-19 23:05:00,
2013-05-19 16:10:00,62.8,40.3,29.88,WSW,251,8.1,-999.0,43,0.00,,,0.00,592.25,,2013-05-19 23:10:00,
2013-05-19 16:15:00,63.2,42.0,29.88,SW,229,9.7,-999.0,46,0.00,,,0.00,575.95,,2013-05-19 23:15:00,
2013-05-19 16:20:00,63.3,-74.4,0.00,North,0,0.0,-999.0,0,-2.95,,,-2.95,570.57,,2013-05-19 23:20:00,
2013-05-19 16:25:00,64.0,42.9,29.88,SSE,155,5.2,-999.0,46,0.00,,,0.00,555.31,,2013-05-19 23:25:00,
2013-05-19 16:30:00,62.6,43.5,29.87,SW,229,8.7,-999.0,50,0.00,,,0.00,536.51,,2013-05-19 23:30:00,
2013-05-19 16:35:00,62.1,42.9,29.87,SW,233,12.4,-999.0,49,0.00,,,0.00,529.67,,2013-05-19 23:35:00,
2013-05-19 16:40:00,63.0,42.5,29.86,SW,227,11.7,-999.0,47,0.00,,,0.00,516.61,,2013-05-19 23:40:00,
2013-05-19 16:45:00,63.4,43.8,29.86,SW,218,5.1,-999.0,49,0.00,,,0.00,503.54,,2013-05-19 23:45:00,
2013-05-19 16:50:00,62.3,43.0,29.85,SW,230,11.2,-999.0,49,0.00,,,0.00,493.77,,2013-05-19 23:50:00,
2013-05-19 16:55:00,64.0,43.9,29.85,SW,232,3.7,-999.0,48,0.00,,,0.00,473.93,,2013-05-19 23:55:00,
2013-05-19 17:00:00,64.2,43.7,29.85,SSW,204,10.5,-999.0,47,0.00,,,0.00,464.77,,2013-05-20 00:00:00,
2013-05-19 17:05:00,63.7,43.5,29.85,SSW,202,9.7,-999.0,48,0.00,,,0.00,451.28,,2013-05-20 00:05:00,
2013-05-19 17:10:00,63.4,44.1,29.85,SSW,205,9.2,-999.0,49,0.00,,,0.00,436.69,,2013-05-20 00:10:00,
2013-05-19 17:15:00,62.2,43.4,29.85,SSW,204,13.4,-999.0,50,0.00,,,0.00,419.66,,2013-05-20 00:15:00,
2013-05-19 17:20:00,61.6,42.6,29.85,WSW,248,10.5,-999.0,50,2.95,,,0.00,414.47,,2013-05-20 00:20:00,
2013-05-19 17:25:00,63.1,45.5,29.85,SSW,206,5.2,-999.0,53,0.00,,,0.00,399.51,,2013-05-20 00:25:00,
2013-05-19 17:30:00,61.4,43.9,29.85,SSE,158,11.4,-999.0,52,0.00,,,0.00,379.73,,2013-05-20 00:30:00,
2013-05-19 17:35:00,61.9,45.0,29.85,South,189,8.1,-999.0,54,0.00,,,0.00,364.65,,2013-05-20 00:35:00,
2013-05-19 17:40:00,60.8,44.5,29.85,SSW,210,11.4,-999.0,55,0.00,,,0.00,354.33,,2013-05-20 00:40:00,
2013-05-19 17:45:00,61.3,44.9,29.84,SSW,196,7.6,-999.0,55,0.00,,,0.00,336.26,,2013-05-20 00:45:00,
2013-05-19 17:50:00,61.0,44.9,29.85,South,173,10.0,-999.0,55,0.00,,,0.00,326.62,,2013-05-20 00:50:00,
2013-05-19 17:55:00,61.0,44.9,29.85,SW,233,11.1,-999.0,55,0.00,,,0.00,306.96,,2013-05-20 00:55:00,
2013-05-19 18:00:00,61.4,45.1,29.85,SW,218,10.4,-999.0,55,0.00,,,0.00,290.17,,2013-05-20 01:00:00,
2013-05-19 18:05:00,60.7,44.6,29.85,WSW,254,9.0,-999.0,55,0.00,,,0.00,277.90,,2013-05-20 01:05:00,
2013-05-19 18:10:00,60.8,45.0,29.85,SSW,200,7.1,-999.0,56,0.00,,,0.00,260.87,,2013-05-20 01:10:00,
2013-05-19 18:15:00,60.7,44.9,29.84,SW,229,5.4,-999.0,56,0.00,,,0.00,248.29,,2013-05-20 01:15:00,
2013-05-19 18:20:00,60.6,44.5,29.85,WSW,244,9.8,-999.0,55,0.00,,,0.00,239.44,,2013-05-20 01:20:00,
2013-05-19 18:25:00,60.1,44.6,29.85,SSW,200,14.6,-999.0,57,0.00,,,0.00,219.84,,2013-05-20 01:25:00,
2013-05-19 18:30:00,60.0,45.2,29.84,WSW,248,7.4,-999.0,58,0.00,,,0.00,206.65,,2013-05-20 01:30:00,
2013-05-19 18:35:00,60.2,45.5,29.84,SSW,204,6.4,-999.0,58,0.00,,,0.00,194.14,,2013-05-20 01:35:00,
2013-05-19 18:40:00,60.0,45.1,29.84,WSW,238,10.5,-999.0,58,0.00,,,0.00,180.71,,2013-05-20 01:40:00,
2013-05-19 18:45:00,59.2,44.9,29.83,SW,218,12.3,-999.0,59,0.00,,,0.00,165.93,,2013-05-20 01:45:00,
2013-05-19 18:50:00,59.3,45.3,29.83,South,176,11.4,-999.0,60,0.00,,,0.00,155.43,,2013-05-20 01:50:00,
2013-05-19 18:55:00,59.7,46.1,29.83,WNW,301,6.8,-999.0,61,0.00,,,0.00,141.82,,2013-05-20 01:55:00,
2013-05-19 19:00:00,58.6,46.0,29.84,SSW,209,10.0,-999.0,63,0.00,,,0.00,128.69,,2013-05-20 02:00:00,
2013-05-19 19:05:00,58.2,46.2,29.84,WSW,248,7.6,-999.0,64,0.00,,,0.00,117.28,,2013-05-20 02:05:00,
2013-05-19 19:10:00,58.2,46.6,29.83,South,174,4.9,-999.0,65,0.00,,,0.00,105.31,,2013-05-20 02:10:00,
2013-05-19 19:15:00,57.8,46.4,29.83,South,190,10.7,-999.0,65,0.00,,,0.00,94.99,,2013-05-20 02:15:00,
2013-05-19 19:20:00,57.1,46.1,29.84,SW,215,10.0,-999.0,67,0.00,,,0.00,83.82,,2013-05-20 02:20:00,
2013-05-19 19:25:00,57.0,46.4,29.84,South,179,9.7,-999.0,68,0.00,,,0.00,70.33,,2013-05-20 02:25:00,
2013-05-19 19:30:00,58.4,48.0,29.83,SE,143,6.1,-999.0,68,0.00,,,0.00,64.65,,2013-05-20 02:30:00,
2013-05-19 19:35:00,57.7,47.2,29.82,SSW,212,12.4,-999.0,68,0.00,,,0.00,57.63,,2013-05-20 02:35:00,
2013-05-19 19:40:00,58.0,47.8,29.83,WSW,250,5.4,-999.0,69,0.00,,,0.00,45.36,,2013-05-20 02:40:00,
2013-05-19 19:45:00,57.0,47.2,29.84,SSW,194,8.0,-999.0,70,0.00,,,0.00,20.82,,2013-05-20 02:45:00,
2013-05-19 19:50:00,56.6,46.9,29.83,SW,223,6.8,-999.0,70,0.00,,,0.00,17.58,,2013-05-20 02:50:00,
2013-05-19 19:55:00,56.6,47.3,29.84,SW,224,9.0,-999.0,71,0.00,,,0.00,13.98,,2013-05-20 02:55:00,
2013-05-19 20:00:00,56.4,47.4,29.84,SW,222,10.9,-999.0,72,0.00,,,0.00,12.45,,2013-05-20 03:00:00,
2013-05-19 20:05:00,56.6,48.0,29.84,WSW,238,5.4,-999.0,73,0.00,,,0.00,10.20,,2013-05-20 03:05:00,
2013-05-19 20:10:00,56.0,47.4,29.84,SSW,209,8.0,-999.0,73,0.00,,,0.00,7.51,,2013-05-20 03:10:00,
2013-05-19 20:15:00,55.5,47.6,29.85,SSW,196,9.3,-999.0,75,0.00,,,0.00,3.48,,2013-05-20 03:15:00,
2013-05-19 20:20:00,55.3,48.0,29.85,West,265,12.3,-999.0,76,0.00,,,0.00,3.05,,2013-05-20 03:20:00,
2013-05-19 20:25:00,55.2,48.1,29.84,WSW,240,10.2,-999.0,77,0.00,,,0.00,0.00,,2013-05-20 03:25:00,
2013-05-19 20:30:00,55.3,48.4,29.85,WSW,243,8.0,-999.0,77,0.00,,,0.00,0.31,,2013-05-20 03:30:00,
2013-05-19 20:35:00,55.2,48.3,29.85,SW,218,4.5,-999.0,78,0.00,,,0.00,0.49,,2013-05-20 03:35:00,
2013-05-19 20:40:00,55.0,48.1,29.84,WSW,247,9.2,-999.0,78,0.00,,,0.00,0.24,,2013-05-20 03:40:00,
2013-05-19 20:45:00,54.9,48.3,29.85,SW,217,6.9,-999.0,78,0.00,,,0.00,0.73,,2013-05-20 03:45:00,
2013-05-19 20:50:00,54.6,48.3,29.84,South,190,9.5,-999.0,79,0.00,,,0.00,1.22,,2013-05-20 03:50:00,
2013-05-19 20:55:00,54.5,48.4,29.85,SW,230,7.6,-999.0,80,0.00,,,0.00,1.34,,2013-05-20 03:55:00,
2013-05-19 21:00:00,54.4,48.5,29.83,WSW,242,7.6,-999.0,80,0.00,,,0.00,0.61,,2013-05-20 04:00:00,
2013-05-19 21:05:00,54.2,48.5,29.84,SSW,211,6.6,-999.0,81,0.00,,,0.00,0.00,,2013-05-20 04:05:00,
2013-05-19 21:10:00,54.1,48.6,29.85,SW,216,9.3,-999.0,82,0.00,,,0.00,0.00,,2013-05-20 04:10:00,
2013-05-19 21:15:00,54.1,48.7,29.83,SW,216,6.9,-999.0,82,0.00,,,0.00,1.22,,2013-05-20 04:15:00,
2013-05-19 21:20:00,54.2,48.6,29.84,NW,322,0.0,-999.0,81,0.00,,,0.00,0.00,,2013-05-20 04:20:00,
2013-05-19 21:25:00,54.1,48.8,29.85,NNW,341,4.0,-999.0,82,0.00,,,0.00,0.55,,2013-05-20 04:25:00,
2013-05-19 21:30:00,54.0,48.6,29.85,SW,225,1.0,-999.0,82,0.00,,,0.00,0.73,,2013-05-20 04:30:00,
2013-05-19 21:35:00,54.1,49.0,29.85,WNW,283,2.3,-999.0,83,0.00,,,0.00,0.00,,2013-05-20 04:35:00,
2013-05-19 21:40:00,54.0,48.8,29.85,SW,225,1.8,-999.0,83,0.00,,,0.00,1.22,,2013-05-20 04:40:00,
2013-05-19 21:45:00,53.7,48.7,29.86,South,176,2.0,-999.0,83,0.00,,,0.00,0.00,,2013-05-20 04:45:00,
2013-05-19 21:50:00,53.9,49.0,29.86,SSW,198,4.2,-999.0,83,0.00,,,0.00,0.18,,2013-05-20 04:50:00,
2013-05-19 21:55:00,53.8,48.9,29.86,SSE,168,4.9,-999.0,84,0.00,,,0.00,0.00,,2013-05-20 04:55:00,
2013-05-19 22:00:00,53.8,48.9,29.85,SSE,163,5.9,-999.0,83,0.00,,,0.00,0.73,,2013-05-20 05:00:00,
2013-05-19 22:05:00,53.7,48.9,29.87,SSE,155,5.1,-999.0,84,0.00,,,0.00,0.00,,2013-05-20 05:05:00,
2013-05-19 22:10:00,53.7,48.9,29.86,South,191,0.0,-999.0,84,0.00,,,0.00,0.49,,2013-05-20 05:10:00,
2013-05-19 22:15:00,54.3,49.5,29.86,WSW,239,2.2,-999.0,84,0.00,,,0.00,0.67,,2013-05-20 05:15:00,
2013-05-19 22:20:00,53.9,48.9,29.86,SSW,194,1.6,-999.0,83,0.00,,,0.00,0.85,,2013-05-20 05:20:00,
2013-05-19 22:25:00,53.8,48.7,29.86,NNW,327,3.2,-999.0,83,0.00,,,0.00,0.00,,2013-05-20 05:25:00,
2013-05-19 22:30:00,53.8,48.8,29.85,South,189,3.0,-999.0,83,0.00,,,0.00,1.22,,2013-05-20 05:30:00,
2013-05-19 22:35:00,53.6,48.8,29.86,WSW,251,4.0,-999.0,84,0.00,,,0.00,0.73,,2013-05-20 05:35:00,
2013-05-19 22:40:00,53.6,48.8,29.87,SSW,208,4.9,-999.0,84,0.00,,,0.00,0.00,,2013-05-20 05:40:00,
2013-05-19 22:45:00,53.6,49.0,29.87,South,179,3.5,-999.0,84,0.00,,,0.00,0.06,,2013-05-20 05:45:00,
2013-05-19 22:50:00,53.6,49.0,29.87,South,171,1.0,-999.0,84,0.00,,,0.00,0.00,,2013-05-20 05:50:00,
2013-05-19 22:55:00,53.8,49.3,29.86,South,189,3.5,-999.0,85,0.00,,,0.00,0.00,,2013-05-20 05:55:00,
2013-05-19 23:00:00,53.7,49.2,29.87,SW,215,0.0,-999.0,85,0.00,,,0.00,0.00,,2013-05-20 06:00:00,
2013-05-19 23:05:00,53.6,49.3,29.86,SW,232,0.0,-999.0,85,0.00,,,0.00,0.00,,2013-05-20 06:05:00,
2013-05-19 23:10:00,54.0,49.9,29.85,SW,228,2.7,-999.0,86,0.00,,,0.00,0.00,,2013-05-20 06:10:00,
2013-05-19 23:15:00,54.0,49.6,29.86,SW,235,4.5,-999.0,85,0.00,,,0.00,0.18,,2013-05-20 06:15:00,
2013-05-19 23:20:00,54.4,49.7,29.86,West,259,0.0,-999.0,84,0.00,,,0.00,0.43,,2013-05-20 06:20:00,
2013-05-19 23:25:00,54.1,49.4,29.86,SW,218,2.2,-999.0,84,0.00,,,0.00,0.98,,2013-05-20 06:25:00,
2013-05-19 23:30:00,54.2,49.5,29.86,West,265,1.0,-999.0,84,0.00,,,0.00,0.49,,2013-05-20 06:30:00,
2013-05-19 23:35:00,53.8,49.2,29.86,SSW,210,1.3,-999.0,84,0.00,,,0.00,0.00,,2013-05-20 06:35:00,
2013-05-19 23:40:00,53.7,49.2,29.85,SW,215,1.8,-999.0,85,0.00,,,0.00,0.06,,2013-05-20 06:40:00,
2013-05-19 23:45:00,53.7,49.3,29.86,SW,217,3.5,-999.0,85,0.00,,,0.00,0.73,,2013-05-20 06:45:00,
2013-05-19 23:50:00,53.9,49.4,29.86,West,262,1.6,-999.0,85,0.00,,,0.00,0.00,,2013-05-20 06:50:00,
2013-05-19 23:55:00,53.9,49.4,29.85,SSW,212,2.2,-999.0,85,0.00,,,0.00,0.00,,2013-05-20 06:55:00,